バロス彗星

C/2017 D2 ( Barros )

English version
Home page
Updated on November 7, 2017

---------------------------------------------------------------------

・ プロフィール

発見日 2017年2月23日
発見光度 17.4等
発見者 J. Barros (SONEAR Observatory at Oliveira)

・ 写真集

・ 軌道要素

Epoch 2017 July 26.0 TT = JDT 2457960.5
T 2017 July 14.53025 TT                                 MPCW
q   2.4858763            (2000.0)            P               Q
z  +0.0007273      Peri.  334.33852     +0.60945350     +0.75194471
 +/-0.0000013      Node   331.04192     -0.60815447     +0.24004968
e   0.9981920      Incl.   31.26573     -0.50863992     +0.61396686
From 344 observations 2017 Feb. 23-Sept. 28, mean residual 0".5.

・ 星図

・ 光度変化

        m1 = 11.0 + 5 logΔ + 10.0 log r(t + 100)

---------------------------------------------------------------------

軌道要素はM.P.E.C. 2017-T14に掲載されたものです。
星図はステラナビゲータ Ver.10 (アストロアーツ) で作成したものです。
光度グラフはComet for Windowsで作成したものです。

---------------------------------------------------------------------

Copyright(C) Seiichi Yoshida (comet@aerith.net). All rights reserved.